Location: ČR
(50.0000°N, 15.0000°E)
Time: 13:50:03
(UTC+00:00)

Explorer 7 - Pass Details

Date: 30 October 2021
Orbit: 483 x 675 km, 50.3° (Epoch: 27 November)

Event Time Altitude Azimuth Distance (km) Brightness Sun altitude
Rises 19:35:33 0° 257° (WSW) 2,619 10.9 -37.7°
Enters shadow 19:36:24 - 257° (WSW) 2,275 10.5 -37.8°
Reaches altitude 10° 19:37:41 10° 257° (WSW) 1,759 - -38.0°
Maximum altitude 19:41:41 86° 169° (S) 552 - -38.5°
Drops below altitude 10° 19:45:58 10° 81° (E) 1,877 - -39.1°
Sets 19:48:18 0° 81° (E) 2,812 - -39.5°
